This is the latest recevied weather packets stored in our database for station/object DG4DAA-13. If no packets are shown the sender has not sent any weather packets the latest 10 day(s).
| Time | Temp. | Humidity | Pressure | Rain* | Wind** | Luminosity | Snow |
|---|---|---|---|---|---|---|---|
| 1778096296 | 7.78° C | 94% | 1012.1 hPa | 0 mm | - | - | - |
| 1778094497 | 7.78° C | 94% | 1011.7 hPa | 0 mm | - | - | - |
| 1778092697 | 7.78° C | 94% | 1011.4 hPa | 0.25 mm | - | - | - |
| 1778090917 | 8.33° C | 94% | 1011.1 hPa | 0.25 mm | - | - | - |
| 1778090897 | 8.33° C | 94% | 1011.1 hPa | 0.25 mm | - | - | - |
| 1778089097 | 8.33° C | 94% | 1010.8 hPa | 0.51 mm | - | - | - |
| 1778087297 | 8.33° C | 94% | 1010.6 hPa | 1.02 mm | - | - | - |
| 1778085503 | 8.89° C | 94% | 1010.4 hPa | 1.02 mm | - | - | - |
| 1778085497 | 8.89° C | 94% | 1010.4 hPa | 1.02 mm | - | - | - |
| 1778083775 | 8.89° C | 94% | 1010.4 hPa | 1.27 mm | - | - | - |
| 1778083697 | 8.89° C | 94% | 1010.4 hPa | 1.27 mm | - | - | - |
| 1778081897 | 8.89° C | 94% | 1010.4 hPa | 2.03 mm | - | - | - |
| 1778080097 | 8.33° C | 94% | 1010.4 hPa | 2.54 mm | - | - | - |
| 1778078297 | 8.33° C | 94% | 1010.3 hPa | 3.05 mm | - | - | - |
| 1778076497 | 8.33° C | 94% | 1010.1 hPa | 3.3 mm | - | - | - |
| 1778074697 | 8.33° C | 94% | 1010.1 hPa | 2.29 mm | - | - | - |
| 1778072999 | 8.33° C | 94% | 1010 hPa | 1.02 mm | - | - | - |
| 1778072930 | 8.33° C | 94% | 1010 hPa | 1.02 mm | - | - | - |
| 1778072898 | 8.33° C | 94% | 1010 hPa | 1.02 mm | - | - | - |
| 1778071097 | 8.33° C | 94% | 1009.8 hPa | 0.51 mm | - | - | - |
| 1778069298 | 8.33° C | 94% | 1009.5 hPa | 0.76 mm | - | - | - |
| 1778067497 | 7.78° C | 94% | 1009.5 hPa | 1.02 mm | - | - | - |
| 1778065697 | 7.78° C | 94% | 1009.4 hPa | 1.27 mm | - | - | - |
| 1778063900 | 7.78° C | 94% | 1009.3 hPa | 1.02 mm | - | - | - |
| 1778063898 | 7.78° C | 94% | 1009.3 hPa | 1.02 mm | - | - | - |
* Rain latest hour (hover to see other rain measurements)
** Current wind speed in m/s (hover to see current wind gust speed)